Time,TemperatureF,DewpointF,PressureIn,WindDirection,WindDirectionDegrees,WindSpeedMPH,WindSpeedGustMPH,Humidity,HourlyPrecipIn,Conditions,Clouds,dailyrainin,SoftwareType,DateUTC
2013-02-13 00:01:00,71.1,69.8,29.92,South,180,2.0,12.0,96,0.00,,,0.00,meteohub,2013-02-13 05:01:00,
2013-02-13 00:02:00,71.1,69.8,29.92,SW,228,1.0,12.0,96,0.00,,,0.00,meteohub,2013-02-13 05:02:00,
2013-02-13 00:04:00,71.1,69.8,29.92,SSE,167,3.0,12.0,96,0.00,,,0.00,meteohub,2013-02-13 05:04:00,
2013-02-13 00:10:00,71.1,69.8,29.92,South,181,5.0,11.0,96,0.00,,,0.00,meteohub,2013-02-13 05:10:00,
2013-02-13 00:16:00,71.1,69.8,29.92,SSE,160,3.0,11.0,96,0.00,,,0.00,meteohub,2013-02-13 05:16:00,
2013-02-13 00:22:00,71.1,69.6,29.93,SW,230,2.0,11.0,95,0.00,,,0.00,meteohub,2013-02-13 05:22:00,
2013-02-13 00:27:00,71.2,70.0,29.93,SSE,158,5.0,11.0,96,0.00,,,0.00,meteohub,2013-02-13 05:27:00,
2013-02-13 00:32:00,71.2,69.8,29.92,South,191,2.0,11.0,95,0.00,,,0.00,meteohub,2013-02-13 05:32:00,
2013-02-13 00:37:00,71.2,69.8,29.92,South,181,4.0,14.0,95,0.00,,,0.00,meteohub,2013-02-13 05:37:00,
2013-02-13 00:43:00,71.1,69.6,29.92,South,173,7.0,14.0,95,0.00,,,0.00,meteohub,2013-02-13 05:43:00,
2013-02-13 00:49:00,71.1,69.8,29.92,SSE,167,8.0,14.0,96,0.00,,,0.00,meteohub,2013-02-13 05:49:00,
2013-02-13 00:55:00,71.2,70.0,29.91,South,176,5.0,11.0,96,0.00,,,0.00,meteohub,2013-02-13 05:55:00,
2013-02-13 01:01:00,71.2,70.0,29.91,SSE,166,8.0,11.0,96,0.00,,,0.00,meteohub,2013-02-13 06:01:00,
2013-02-13 01:07:00,71.2,70.0,29.91,South,176,4.0,12.0,96,0.00,,,0.00,meteohub,2013-02-13 06:07:00,
2013-02-13 01:12:00,71.2,70.0,29.91,SSE,166,3.0,12.0,96,0.00,,,0.00,meteohub,2013-02-13 06:12:00,
2013-02-13 01:17:00,71.2,70.0,29.91,South,179,8.0,12.0,96,0.00,,,0.00,meteohub,2013-02-13 06:17:00,
2013-02-13 01:22:00,71.2,70.0,29.91,SE,137,1.0,13.0,96,0.00,,,0.00,meteohub,2013-02-13 06:22:00,
2013-02-13 01:27:00,71.2,70.0,29.91,SSW,204,1.0,13.0,96,0.00,,,0.00,meteohub,2013-02-13 06:27:00,
2013-02-13 01:32:00,71.2,70.0,29.91,SW,217,5.0,13.0,96,0.00,,,0.00,meteohub,2013-02-13 06:32:00,
2013-02-13 01:37:00,71.2,70.0,29.91,South,174,5.0,13.0,96,0.00,,,0.00,meteohub,2013-02-13 06:37:00,
2013-02-13 01:42:00,71.2,70.0,29.91,SW,214,6.0,12.0,96,0.00,,,0.00,meteohub,2013-02-13 06:42:00,
2013-02-13 01:47:00,71.4,70.2,29.91,WSW,249,4.0,12.0,96,0.00,,,0.00,meteohub,2013-02-13 06:47:00,
2013-02-13 01:52:00,71.2,70.0,29.91,South,181,0.0,12.0,96,0.00,,,0.00,meteohub,2013-02-13 06:52:00,
2013-02-13 01:57:00,71.4,70.2,29.91,South,174,4.0,13.0,96,0.00,,,0.00,meteohub,2013-02-13 06:57:00,
2013-02-13 02:02:00,71.4,70.0,29.91,SSW,193,7.0,15.0,95,0.00,,,0.00,meteohub,2013-02-13 07:02:00,
2013-02-13 02:07:00,71.4,70.0,29.90,South,172,0.0,15.0,95,0.00,,,0.00,meteohub,2013-02-13 07:07:00,
2013-02-13 02:12:00,71.4,70.0,29.90,SSW,203,7.0,14.0,95,0.00,,,0.00,meteohub,2013-02-13 07:12:00,
2013-02-13 02:17:00,71.4,70.0,29.90,South,185,3.0,15.0,95,0.00,,,0.00,meteohub,2013-02-13 07:17:00,
2013-02-13 02:22:00,71.4,70.0,29.90,South,169,2.0,15.0,95,0.00,,,0.00,meteohub,2013-02-13 07:22:00,
2013-02-13 02:27:00,71.2,69.8,29.90,South,179,1.0,15.0,95,0.00,,,0.00,meteohub,2013-02-13 07:27:00,
2013-02-13 02:32:00,71.2,69.8,29.90,South,178,1.0,11.0,95,0.00,,,0.00,meteohub,2013-02-13 07:32:00,
2013-02-13 02:37:00,71.2,69.8,29.90,South,185,2.0,11.0,95,0.00,,,0.00,meteohub,2013-02-13 07:37:00,
2013-02-13 02:42:00,71.2,69.8,29.90,WSW,241,9.0,9.0,95,0.00,,,0.00,meteohub,2013-02-13 07:42:00,
2013-02-13 02:47:00,71.2,69.8,29.90,South,187,4.0,11.0,95,0.00,,,0.00,meteohub,2013-02-13 07:47:00,
2013-02-13 02:52:00,71.2,69.8,29.89,South,170,5.0,11.0,95,0.00,,,0.00,meteohub,2013-02-13 07:52:00,
2013-02-13 02:57:00,71.2,69.8,29.89,WSW,237,6.0,10.0,95,0.00,,,0.00,meteohub,2013-02-13 07:57:00,
2013-02-13 03:02:00,71.2,69.8,29.89,SSE,164,7.0,10.0,95,0.00,,,0.00,meteohub,2013-02-13 08:02:00,
2013-02-13 03:07:00,71.1,69.6,29.89,South,182,5.0,10.0,95,0.00,,,0.00,meteohub,2013-02-13 08:07:00,
2013-02-13 03:12:00,71.2,69.8,29.89,SSE,167,7.0,12.0,95,0.00,,,0.00,meteohub,2013-02-13 08:12:00,
2013-02-13 03:17:00,71.1,69.6,29.89,SSE,158,5.0,12.0,95,0.00,,,0.00,meteohub,2013-02-13 08:17:00,
2013-02-13 03:23:00,71.1,69.6,29.88,SSE,163,5.0,12.0,95,0.00,,,0.00,meteohub,2013-02-13 08:23:00,
2013-02-13 03:29:00,71.1,69.6,29.88,South,177,5.0,11.0,95,0.00,,,0.00,meteohub,2013-02-13 08:29:00,
2013-02-13 03:35:00,71.1,69.6,29.88,South,179,1.0,11.0,95,0.00,,,0.00,meteohub,2013-02-13 08:35:00,
2013-02-13 03:41:00,71.1,69.6,29.88,SSE,165,6.0,12.0,95,0.00,,,0.00,meteohub,2013-02-13 08:41:00,
2013-02-13 03:47:00,71.1,69.6,29.88,South,172,3.0,13.0,95,0.00,,,0.00,meteohub,2013-02-13 08:47:00,
2013-02-13 03:52:00,71.1,69.6,29.88,South,181,5.0,13.0,95,0.00,,,0.00,meteohub,2013-02-13 08:52:00,
2013-02-13 03:59:00,71.1,69.6,29.88,SSE,156,3.0,13.0,95,0.00,,,0.00,meteohub,2013-02-13 08:59:00,
2013-02-13 04:05:00,71.1,69.6,29.88,South,181,8.0,15.0,95,0.00,,,0.00,meteohub,2013-02-13 09:05:00,
2013-02-13 04:11:00,71.1,69.6,29.88,South,183,4.0,15.0,95,0.00,,,0.00,meteohub,2013-02-13 09:11:00,
2013-02-13 04:17:00,70.9,69.4,29.88,SSW,195,7.0,15.0,95,0.00,,,0.00,meteohub,2013-02-13 09:17:00,
2013-02-13 04:22:00,70.7,69.3,29.88,South,170,2.0,14.0,95,0.00,,,0.00,meteohub,2013-02-13 09:22:00,
2013-02-13 04:27:00,70.7,69.3,29.88,South,183,8.0,14.0,95,0.00,,,0.00,meteohub,2013-02-13 09:27:00,
2013-02-13 04:32:00,70.5,69.1,29.88,SSW,200,2.0,13.0,95,0.00,,,0.00,meteohub,2013-02-13 09:32:00,
2013-02-13 04:37:00,70.3,68.9,29.88,SSE,153,3.0,12.0,95,0.00,,,0.00,meteohub,2013-02-13 09:37:00,
2013-02-13 04:42:00,70.3,68.9,29.88,South,173,3.0,12.0,95,0.00,,,0.00,meteohub,2013-02-13 09:42:00,
2013-02-13 04:47:00,70.3,68.9,29.88,SW,219,4.0,12.0,95,0.00,,,0.00,meteohub,2013-02-13 09:47:00,
2013-02-13 04:52:00,70.2,68.7,29.88,South,177,7.0,10.0,95,0.00,,,0.00,meteohub,2013-02-13 09:52:00,
2013-02-13 04:57:00,70.2,68.9,29.88,South,181,8.0,10.0,96,0.00,,,0.00,meteohub,2013-02-13 09:57:00,
2013-02-13 05:02:00,70.3,69.1,29.88,South,179,9.0,12.0,96,0.00,,,0.00,meteohub,2013-02-13 10:02:00,
2013-02-13 05:07:00,70.2,68.7,29.88,SSE,158,11.0,12.0,95,0.00,,,0.00,meteohub,2013-02-13 10:07:00,
2013-02-13 05:12:00,70.2,68.7,29.88,South,170,5.0,14.0,95,0.00,,,0.00,meteohub,2013-02-13 10:12:00,
2013-02-13 05:17:00,70.0,68.5,29.88,SSE,168,2.0,14.0,95,0.00,,,0.00,meteohub,2013-02-13 10:17:00,
2013-02-13 05:22:00,70.0,68.5,29.88,SSE,158,10.0,14.0,95,0.00,,,0.00,meteohub,2013-02-13 10:22:00,
2013-02-13 05:27:00,70.2,68.7,29.88,South,183,3.0,13.0,95,0.00,,,0.00,meteohub,2013-02-13 10:27:00,
2013-02-13 05:32:00,70.0,68.5,29.88,South,174,1.0,12.0,95,0.00,,,0.00,meteohub,2013-02-13 10:32:00,
2013-02-13 05:37:00,70.0,68.5,29.88,South,174,2.0,12.0,95,0.00,,,0.00,meteohub,2013-02-13 10:37:00,
2013-02-13 05:42:00,70.0,68.7,29.88,South,187,11.0,12.0,96,0.00,,,0.00,meteohub,2013-02-13 10:42:00,
2013-02-13 05:47:00,69.8,68.4,29.88,South,172,4.0,12.0,95,0.00,,,0.00,meteohub,2013-02-13 10:47:00,
2013-02-13 05:52:00,69.8,68.4,29.88,SSE,166,4.0,12.0,95,0.00,,,0.00,meteohub,2013-02-13 10:52:00,
2013-02-13 05:57:00,69.8,68.5,29.88,WSW,245,2.0,12.0,96,0.00,,,0.00,meteohub,2013-02-13 10:57:00,
2013-02-13 06:02:00,70.0,68.5,29.88,WSW,239,6.0,11.0,95,0.00,,,0.00,meteohub,2013-02-13 11:02:00,
2013-02-13 06:07:00,69.6,68.2,29.88,South,179,6.0,10.0,95,0.00,,,0.00,meteohub,2013-02-13 11:07:00,
2013-02-13 06:12:00,69.6,68.2,29.89,SSE,164,5.0,10.0,95,0.00,,,0.00,meteohub,2013-02-13 11:12:00,
2013-02-13 06:17:00,69.6,68.2,29.89,South,169,7.0,10.0,95,0.00,,,0.00,meteohub,2013-02-13 11:17:00,
2013-02-13 06:22:00,69.6,68.2,29.89,SSW,207,2.0,12.0,95,0.00,,,0.00,meteohub,2013-02-13 11:22:00,
2013-02-13 06:27:00,69.4,68.0,29.89,South,185,0.0,12.0,95,0.00,,,0.00,meteohub,2013-02-13 11:27:00,
2013-02-13 06:32:00,69.6,68.4,29.89,South,183,6.0,12.0,96,0.00,,,0.00,meteohub,2013-02-13 11:32:00,
2013-02-13 06:37:00,69.6,68.4,29.89,South,170,1.0,10.0,96,0.00,,,0.00,meteohub,2013-02-13 11:37:00,
2013-02-13 06:42:00,69.6,68.2,29.89,South,187,3.0,10.0,95,0.00,,,0.00,meteohub,2013-02-13 11:42:00,
2013-02-13 06:47:00,69.8,68.5,29.89,South,174,1.0,10.0,96,0.00,,,0.00,meteohub,2013-02-13 11:47:00,
2013-02-13 06:52:00,69.8,68.5,29.89,WSW,239,5.0,11.0,96,0.00,,,0.00,meteohub,2013-02-13 11:52:00,
2013-02-13 06:57:00,70.0,68.7,29.89,South,178,2.0,11.0,96,0.00,,,0.00,meteohub,2013-02-13 11:57:00,
2013-02-13 07:02:00,70.0,68.7,29.89,SW,224,2.0,11.0,96,0.00,,,0.00,meteohub,2013-02-13 12:02:00,
2013-02-13 07:07:00,70.0,68.7,29.89,SSE,164,3.0,12.0,96,0.00,,,0.00,meteohub,2013-02-13 12:07:00,
2013-02-13 07:12:00,70.0,68.7,29.89,SW,226,8.0,12.0,96,0.00,,,0.00,meteohub,2013-02-13 12:12:00,
2013-02-13 07:17:00,70.2,68.9,29.90,WSW,247,4.0,12.0,96,0.00,,,0.00,meteohub,2013-02-13 12:17:00,
2013-02-13 07:22:00,70.2,69.3,29.90,SSW,199,4.0,12.0,97,0.00,,,0.00,meteohub,2013-02-13 12:22:00,
2013-02-13 07:27:00,70.2,69.3,29.90,WSW,241,5.0,10.0,97,0.00,,,0.00,meteohub,2013-02-13 12:27:00,
2013-02-13 07:32:00,70.3,69.4,29.90,WSW,247,6.0,12.0,97,0.00,,,0.00,meteohub,2013-02-13 12:32:00,
2013-02-13 07:37:00,70.5,69.6,29.90,SW,222,5.0,12.0,97,0.00,,,0.00,meteohub,2013-02-13 12:37:00,
2013-02-13 07:42:00,70.7,69.8,29.91,WSW,240,4.0,12.0,97,0.00,,,0.00,meteohub,2013-02-13 12:42:00,
2013-02-13 07:47:00,70.9,70.0,29.91,SW,236,5.0,12.0,97,0.00,,,0.00,meteohub,2013-02-13 12:47:00,
2013-02-13 07:52:00,71.1,70.2,29.91,WSW,251,8.0,15.0,97,0.00,,,0.00,meteohub,2013-02-13 12:52:00,
2013-02-13 07:57:00,71.1,70.2,29.91,West,268,3.0,16.0,97,0.00,,,0.00,meteohub,2013-02-13 12:57:00,
2013-02-13 08:02:00,71.1,69.8,29.91,SSW,192,6.0,16.0,96,0.00,,,0.00,meteohub,2013-02-13 13:02:00,
2013-02-13 08:07:00,71.1,69.8,29.91,SW,220,2.0,14.0,96,0.00,,,0.00,meteohub,2013-02-13 13:07:00,
2013-02-13 08:12:00,71.2,70.0,29.91,South,180,6.0,14.0,96,0.00,,,0.00,meteohub,2013-02-13 13:12:00,
2013-02-13 08:17:00,71.2,70.0,29.91,SE,129,3.0,14.0,96,0.00,,,0.00,meteohub,2013-02-13 13:17:00,
2013-02-13 08:22:00,71.4,70.2,29.91,South,177,6.0,13.0,96,0.00,,,0.00,meteohub,2013-02-13 13:22:00,
2013-02-13 08:27:00,71.4,70.2,29.91,SSE,157,3.0,13.0,96,0.00,,,0.00,meteohub,2013-02-13 13:27:00,
2013-02-13 08:32:00,71.4,70.2,29.91,SSE,165,10.0,13.0,96,0.00,,,0.00,meteohub,2013-02-13 13:32:00,
2013-02-13 08:37:00,71.4,70.0,29.91,SSW,192,7.0,14.0,95,0.00,,,0.00,meteohub,2013-02-13 13:37:00,
2013-02-13 08:42:00,71.4,70.0,29.91,SW,231,9.0,14.0,95,0.00,,,0.00,meteohub,2013-02-13 13:42:00,
2013-02-13 08:47:00,71.8,70.3,29.91,South,174,9.0,14.0,95,0.00,,,0.00,meteohub,2013-02-13 13:47:00,
2013-02-13 08:52:00,72.0,70.5,29.91,South,170,2.0,15.0,95,0.00,,,0.00,meteohub,2013-02-13 13:52:00,
2013-02-13 08:57:00,72.3,70.9,29.91,WSW,252,5.0,15.0,95,0.00,,,0.00,meteohub,2013-02-13 13:57:00,
2013-02-13 09:02:00,72.7,70.9,29.91,SSW,208,2.0,15.0,94,0.00,,,0.00,meteohub,2013-02-13 14:02:00,
2013-02-13 09:07:00,72.7,70.5,29.91,South,179,5.0,19.0,93,0.00,,,0.00,meteohub,2013-02-13 14:07:00,
2013-02-13 09:12:00,72.9,70.7,29.91,South,172,3.0,19.0,93,0.00,,,0.00,meteohub,2013-02-13 14:12:00,
2013-02-13 09:17:00,73.0,70.9,29.92,WSW,258,3.0,18.0,93,0.00,,,0.00,meteohub,2013-02-13 14:17:00,
2013-02-13 09:22:00,73.2,70.7,29.91,SSW,209,8.0,16.0,92,0.00,,,0.00,meteohub,2013-02-13 14:22:00,
2013-02-13 09:27:00,73.6,71.1,29.92,SW,232,8.0,16.0,92,0.00,,,0.00,meteohub,2013-02-13 14:27:00,
2013-02-13 09:32:00,73.6,70.7,29.91,WSW,240,9.0,13.0,91,0.00,,,0.00,meteohub,2013-02-13 14:32:00,
2013-02-13 09:37:00,73.8,71.2,29.91,WSW,251,5.0,15.0,92,0.00,,,0.00,meteohub,2013-02-13 14:37:00,
2013-02-13 09:42:00,73.9,71.1,29.91,South,177,3.0,16.0,91,0.00,,,0.00,meteohub,2013-02-13 14:42:00,
2013-02-13 09:47:00,74.5,71.4,29.91,SSE,164,5.0,16.0,90,0.00,,,0.00,meteohub,2013-02-13 14:47:00,
2013-02-13 09:52:00,74.7,71.2,29.91,WSW,242,12.0,16.0,89,0.00,,,0.00,meteohub,2013-02-13 14:52:00,
2013-02-13 09:57:00,74.8,71.4,29.91,West,271,6.0,15.0,89,0.00,,,0.00,meteohub,2013-02-13 14:57:00,
2013-02-13 10:02:00,75.0,71.6,29.91,SSW,193,6.0,17.0,89,0.00,,,0.00,meteohub,2013-02-13 15:02:00,
2013-02-13 10:07:00,75.4,71.6,29.91,SSW,194,9.0,19.0,88,0.00,,,0.00,meteohub,2013-02-13 15:07:00,
2013-02-13 10:12:00,75.7,71.6,29.91,South,186,18.0,19.0,87,0.00,,,0.00,meteohub,2013-02-13 15:12:00,
2013-02-13 10:17:00,75.7,71.6,29.91,South,188,9.0,20.0,87,0.00,,,0.00,meteohub,2013-02-13 15:17:00,
2013-02-13 10:22:00,75.7,71.6,29.91,SW,222,8.0,20.0,87,0.00,,,0.00,meteohub,2013-02-13 15:22:00,
2013-02-13 10:27:00,75.7,71.6,29.91,SW,225,6.0,20.0,87,0.00,,,0.00,meteohub,2013-02-13 15:27:00,
2013-02-13 10:32:00,75.7,71.6,29.91,South,184,7.0,19.0,87,0.00,,,0.00,meteohub,2013-02-13 15:32:00,
2013-02-13 10:37:00,75.9,71.8,29.91,South,179,12.0,19.0,87,0.00,,,0.00,meteohub,2013-02-13 15:37:00,
2013-02-13 10:42:00,75.6,71.4,29.91,SSE,156,11.0,18.0,87,0.00,,,0.00,meteohub,2013-02-13 15:42:00,
2013-02-13 10:47:00,75.6,71.8,29.91,South,181,12.0,18.0,88,0.00,,,0.00,meteohub,2013-02-13 15:47:00,
2013-02-13 10:52:00,75.7,71.6,29.91,South,184,5.0,18.0,87,0.00,,,0.00,meteohub,2013-02-13 15:52:00,
2013-02-13 10:57:00,75.6,71.4,29.91,South,177,9.0,18.0,87,0.00,,,0.00,meteohub,2013-02-13 15:57:00,
2013-02-13 11:02:00,75.6,71.4,29.91,South,174,8.0,18.0,87,0.00,,,0.00,meteohub,2013-02-13 16:02:00,
2013-02-13 11:07:00,75.7,71.6,29.91,SE,143,6.0,18.0,87,0.00,,,0.00,meteohub,2013-02-13 16:07:00,
2013-02-13 11:12:00,76.1,71.6,29.91,South,181,6.0,18.0,86,0.00,,,0.00,meteohub,2013-02-13 16:12:00,
2013-02-13 11:17:00,76.1,72.0,29.90,South,177,13.0,16.0,87,0.00,,,0.00,meteohub,2013-02-13 16:17:00,
2013-02-13 11:22:00,76.3,71.8,29.90,SSE,166,5.0,16.0,86,0.00,,,0.00,meteohub,2013-02-13 16:22:00,
2013-02-13 11:27:00,76.5,72.0,29.90,SW,222,6.0,20.0,86,0.00,,,0.00,meteohub,2013-02-13 16:27:00,
2013-02-13 11:32:00,76.8,72.0,29.90,SSE,158,4.0,20.0,85,0.00,,,0.00,meteohub,2013-02-13 16:32:00,
2013-02-13 11:37:00,77.4,72.1,29.90,SSE,160,7.0,18.0,84,0.00,,,0.00,meteohub,2013-02-13 16:37:00,
2013-02-13 11:42:00,77.5,72.0,29.90,SSE,168,8.0,15.0,83,0.00,,,0.00,meteohub,2013-02-13 16:42:00,
2013-02-13 11:47:00,77.5,72.0,29.90,WSW,237,5.0,15.0,83,0.00,,,0.00,meteohub,2013-02-13 16:47:00,
2013-02-13 11:52:00,77.4,72.1,29.90,SSW,210,5.0,15.0,84,0.00,,,0.00,meteohub,2013-02-13 16:52:00,
2013-02-13 11:57:00,77.4,72.1,29.89,South,180,7.0,16.0,84,0.00,,,0.00,meteohub,2013-02-13 16:57:00,
2013-02-13 12:02:00,77.5,72.0,29.90,SW,216,5.0,16.0,83,0.00,,,0.00,meteohub,2013-02-13 17:02:00,
2013-02-13 12:07:00,77.7,72.1,29.90,SSW,207,12.0,16.0,83,0.00,,,0.00,meteohub,2013-02-13 17:07:00,
2013-02-13 12:12:00,78.1,72.5,29.89,WSW,247,5.0,20.0,83,0.00,,,0.00,meteohub,2013-02-13 17:12:00,
2013-02-13 12:17:00,78.1,72.5,29.89,SSE,160,1.0,20.0,83,0.00,,,0.00,meteohub,2013-02-13 17:17:00,
2013-02-13 12:22:00,78.3,72.3,29.89,South,187,3.0,18.0,82,0.00,,,0.00,meteohub,2013-02-13 17:22:00,
2013-02-13 12:27:00,78.6,72.3,29.88,SSW,212,3.0,19.0,81,0.00,,,0.00,meteohub,2013-02-13 17:27:00,
2013-02-13 12:32:00,78.8,72.5,29.88,NW,326,9.0,19.0,81,0.00,,,0.00,meteohub,2013-02-13 17:32:00,
2013-02-13 12:37:00,79.2,72.5,29.88,South,188,9.0,19.0,80,0.00,,,0.00,meteohub,2013-02-13 17:37:00,
2013-02-13 12:44:00,79.9,72.3,29.87,South,187,4.0,16.0,78,0.00,,,0.00,meteohub,2013-02-13 17:44:00,
2013-02-13 12:50:00,79.5,72.5,29.87,SSW,196,7.0,19.0,79,0.00,,,0.00,meteohub,2013-02-13 17:50:00,
2013-02-13 12:56:00,79.3,72.7,29.87,WSW,244,7.0,20.0,80,0.00,,,0.00,meteohub,2013-02-13 17:56:00,
2013-02-13 13:02:00,79.9,72.9,29.87,SSW,195,7.0,20.0,79,0.00,,,0.00,meteohub,2013-02-13 18:02:00,
2013-02-13 13:07:00,79.9,73.2,29.86,SSW,194,4.0,21.0,80,0.00,,,0.00,meteohub,2013-02-13 18:07:00,
2013-02-13 13:12:00,79.5,72.5,29.86,South,180,2.0,21.0,79,0.00,,,0.00,meteohub,2013-02-13 18:12:00,
2013-02-13 13:17:00,79.7,73.0,29.86,SW,231,10.0,22.0,80,0.00,,,0.00,meteohub,2013-02-13 18:17:00,
2013-02-13 13:22:00,80.1,73.0,29.86,SW,225,15.0,22.0,79,0.00,,,0.00,meteohub,2013-02-13 18:22:00,
2013-02-13 13:27:00,79.9,72.9,29.86,West,264,11.0,22.0,79,0.00,,,0.00,meteohub,2013-02-13 18:27:00,
2013-02-13 13:32:00,79.0,72.3,29.86,WSW,258,20.0,22.0,80,0.00,,,0.00,meteohub,2013-02-13 18:32:00,
2013-02-13 13:37:00,78.4,72.5,29.86,SW,214,14.0,23.0,82,0.00,,,0.00,meteohub,2013-02-13 18:37:00,
2013-02-13 13:42:00,77.7,72.1,29.85,South,178,7.0,23.0,83,0.00,,,0.00,meteohub,2013-02-13 18:42:00,
2013-02-13 13:47:00,77.7,72.5,29.85,SW,231,15.0,23.0,84,0.00,,,0.00,meteohub,2013-02-13 18:47:00,
2013-02-13 13:52:00,77.4,72.1,29.85,SSW,195,8.0,25.0,84,0.00,,,0.00,meteohub,2013-02-13 18:52:00,
2013-02-13 13:57:00,77.5,72.3,29.85,South,188,9.0,25.0,84,0.00,,,0.00,meteohub,2013-02-13 18:57:00,
2013-02-13 14:02:00,77.5,72.3,29.84,SW,222,14.0,25.0,84,0.00,,,0.00,meteohub,2013-02-13 19:02:00,
2013-02-13 14:07:00,77.2,72.3,29.84,West,260,11.0,21.0,85,0.00,,,0.00,meteohub,2013-02-13 19:07:00,
2013-02-13 14:12:00,77.4,72.5,29.84,WSW,246,6.0,21.0,85,0.00,,,0.00,meteohub,2013-02-13 19:12:00,
2013-02-13 14:17:00,77.2,72.3,29.84,SW,225,12.0,21.0,85,0.00,,,0.00,meteohub,2013-02-13 19:17:00,
2013-02-13 14:22:00,77.2,72.3,29.84,WSW,239,16.0,21.0,85,0.00,,,0.00,meteohub,2013-02-13 19:22:00,
2013-02-13 14:27:00,76.8,72.3,29.84,South,179,8.0,20.0,86,0.00,,,0.00,meteohub,2013-02-13 19:27:00,
2013-02-13 14:32:00,77.2,72.3,29.84,SSW,192,2.0,20.0,85,0.00,,,0.00,meteohub,2013-02-13 19:32:00,
2013-02-13 14:37:00,77.4,72.9,29.83,WSW,256,12.0,22.0,86,0.00,,,0.00,meteohub,2013-02-13 19:37:00,
2013-02-13 14:42:00,77.7,72.9,29.83,SW,227,20.0,22.0,85,0.00,,,0.00,meteohub,2013-02-13 19:42:00,
2013-02-13 14:47:00,77.5,72.3,29.83,WSW,246,9.0,22.0,84,0.00,,,0.00,meteohub,2013-02-13 19:47:00,
2013-02-13 14:52:00,77.5,72.7,29.83,NNW,329,7.0,22.0,85,0.00,,,0.00,meteohub,2013-02-13 19:52:00,
2013-02-13 14:57:00,77.5,72.7,29.83,SW,218,4.0,22.0,85,0.00,,,0.00,meteohub,2013-02-13 19:57:00,
2013-02-13 15:02:00,77.7,72.9,29.83,WSW,249,6.0,22.0,85,0.00,,,0.00,meteohub,2013-02-13 20:02:00,
2013-02-13 15:07:00,78.4,73.2,29.83,WSW,242,11.0,22.0,84,0.00,,,0.00,meteohub,2013-02-13 20:07:00,
2013-02-13 15:12:00,78.4,72.9,29.83,West,261,15.0,22.0,83,0.00,,,0.00,meteohub,2013-02-13 20:12:00,
2013-02-13 15:18:00,78.3,73.0,29.83,WSW,256,11.0,22.0,84,0.00,,,0.00,meteohub,2013-02-13 20:18:00,
2013-02-13 15:24:00,78.6,73.4,29.83,WSW,243,15.0,23.0,84,0.00,,,0.00,meteohub,2013-02-13 20:24:00,
2013-02-13 15:30:00,79.0,73.4,29.82,SW,217,8.0,23.0,83,0.00,,,0.00,meteohub,2013-02-13 20:30:00,
2013-02-13 15:36:00,79.0,73.4,29.82,WSW,258,16.0,23.0,83,0.00,,,0.00,meteohub,2013-02-13 20:36:00,
2013-02-13 15:42:00,79.2,73.2,29.82,SW,235,9.0,21.0,82,0.00,,,0.00,meteohub,2013-02-13 20:42:00,
2013-02-13 15:47:00,78.6,73.0,29.81,SSW,195,9.0,22.0,83,0.00,,,0.00,meteohub,2013-02-13 20:47:00,
2013-02-13 15:52:00,78.3,72.7,29.81,WSW,250,16.0,24.0,83,0.00,,,0.00,meteohub,2013-02-13 20:52:00,
2013-02-13 15:57:00,78.1,72.9,29.81,WSW,241,8.0,24.0,84,0.00,,,0.00,meteohub,2013-02-13 20:57:00,
2013-02-13 16:03:00,78.4,73.2,29.81,WSW,251,10.0,24.0,84,0.00,,,0.00,meteohub,2013-02-13 21:03:00,
2013-02-13 16:09:00,78.6,73.0,29.81,WSW,256,16.0,22.0,83,0.00,,,0.00,meteohub,2013-02-13 21:09:00,
2013-02-13 16:15:00,78.4,72.9,29.82,SW,235,15.0,19.0,83,0.00,,,0.00,meteohub,2013-02-13 21:15:00,
2013-02-13 16:21:00,78.1,72.9,29.82,SSE,156,12.0,21.0,84,0.00,,,0.00,meteohub,2013-02-13 21:21:00,
2013-02-13 16:27:00,77.9,73.0,29.82,SW,220,13.0,22.0,85,0.00,,,0.00,meteohub,2013-02-13 21:27:00,
2013-02-13 16:32:00,77.7,72.9,29.82,West,274,4.0,22.0,85,0.00,,,0.00,meteohub,2013-02-13 21:32:00,
2013-02-13 16:39:00,77.2,72.7,29.82,WSW,245,10.0,22.0,86,0.00,,,0.00,meteohub,2013-02-13 21:39:00,
2013-02-13 16:45:00,76.6,72.5,29.82,WSW,253,6.0,19.0,87,0.00,,,0.00,meteohub,2013-02-13 21:45:00,
2013-02-13 16:51:00,76.3,72.5,29.83,SW,232,5.0,21.0,88,0.00,,,0.00,meteohub,2013-02-13 21:51:00,
2013-02-13 16:57:00,75.9,72.1,29.83,WNW,303,15.0,21.0,88,0.00,,,0.00,meteohub,2013-02-13 21:57:00,
2013-02-13 17:02:00,73.2,69.4,29.83,WSW,244,7.0,20.0,88,0.00,,,0.00,meteohub,2013-02-13 22:02:00,
2013-02-13 17:07:00,73.0,69.3,29.83,WNW,298,9.0,19.0,88,0.00,,,0.00,meteohub,2013-02-13 22:07:00,
2013-02-13 17:12:00,72.5,69.1,29.83,NW,317,1.0,19.0,89,0.00,,,0.00,meteohub,2013-02-13 22:12:00,
2013-02-13 17:17:00,71.8,68.7,29.84,WSW,254,13.0,15.0,90,0.00,,,0.00,meteohub,2013-02-13 22:17:00,
2013-02-13 17:22:00,71.1,68.4,29.84,North,359,6.0,15.0,91,0.00,,,0.00,meteohub,2013-02-13 22:22:00,
2013-02-13 17:27:00,70.9,68.4,29.84,WNW,283,3.0,15.0,92,0.00,,,0.00,meteohub,2013-02-13 22:27:00,
2013-02-13 17:32:00,70.9,68.4,29.84,North,359,2.0,15.0,92,0.00,,,0.00,meteohub,2013-02-13 22:32:00,
2013-02-13 17:37:00,70.7,68.2,29.84,North,359,5.0,9.0,92,0.00,,,0.00,meteohub,2013-02-13 22:37:00,
2013-02-13 17:42:00,70.3,68.2,29.84,West,270,6.0,8.0,93,0.00,,,0.00,meteohub,2013-02-13 22:42:00,
2013-02-13 17:47:00,70.2,68.4,29.84,WNW,290,5.0,7.0,94,0.00,,,0.00,meteohub,2013-02-13 22:47:00,
2013-02-13 17:52:00,70.0,68.2,29.84,NW,312,4.0,10.0,94,0.00,,,0.00,meteohub,2013-02-13 22:52:00,
2013-02-13 17:57:00,69.6,68.2,29.85,North,359,0.0,14.0,95,0.00,,,0.00,meteohub,2013-02-13 22:57:00,
2013-02-13 18:02:00,69.4,68.0,29.84,NW,305,0.0,14.0,95,0.00,,,0.00,meteohub,2013-02-13 23:02:00,
2013-02-13 18:07:00,69.4,68.0,29.84,North,359,4.0,14.0,95,0.00,,,0.00,meteohub,2013-02-13 23:07:00,
2013-02-13 18:13:00,69.3,68.0,29.84,North,354,4.0,9.0,96,0.00,,,0.00,meteohub,2013-02-13 23:13:00,
2013-02-13 18:19:00,69.1,67.8,29.85,NW,305,5.0,8.0,96,0.00,,,0.00,meteohub,2013-02-13 23:19:00,
2013-02-13 18:25:00,69.1,67.8,29.86,North,359,6.0,8.0,96,0.00,,,0.00,meteohub,2013-02-13 23:25:00,
2013-02-13 18:31:00,68.5,67.3,29.86,North,359,11.0,13.0,96,0.00,,,0.00,meteohub,2013-02-13 23:31:00,
2013-02-13 18:37:00,65.1,63.0,29.88,NNW,328,11.0,27.0,93,0.01,,,0.01,meteohub,2013-02-13 23:37:00,
2013-02-13 18:42:00,63.7,61.7,29.88,NNE,28,11.0,27.0,93,0.01,,,0.01,meteohub,2013-02-13 23:42:00,
2013-02-13 18:47:00,63.3,61.3,29.88,NNE,18,15.0,27.0,93,0.01,,,0.01,meteohub,2013-02-13 23:47:00,
2013-02-13 18:52:00,63.0,61.0,29.89,North,359,6.0,21.0,93,0.01,,,0.01,meteohub,2013-02-13 23:52:00,
2013-02-13 18:57:00,63.1,61.2,29.89,North,359,5.0,21.0,93,0.01,,,0.01,meteohub,2013-02-13 23:57:00,
2013-02-13 19:02:00,62.4,60.4,29.89,NNE,32,10.0,19.0,93,0.01,,,0.01,meteohub,2013-02-14 00:02:00,
2013-02-13 19:07:00,62.4,60.4,29.90,North,354,9.0,17.0,93,0.01,,,0.01,meteohub,2013-02-14 00:07:00,
2013-02-13 19:12:00,62.2,59.9,29.91,NE,46,5.0,14.0,92,0.01,,,0.01,meteohub,2013-02-14 00:12:00,
2013-02-13 19:17:00,62.4,60.1,29.90,NNE,12,3.0,12.0,92,0.01,,,0.01,meteohub,2013-02-14 00:17:00,
2013-02-13 19:22:00,62.2,59.9,29.91,North,4,7.0,9.0,92,0.01,,,0.01,meteohub,2013-02-14 00:22:00,
2013-02-13 19:27:00,62.2,59.9,29.91,North,349,8.0,9.0,92,0.01,,,0.01,meteohub,2013-02-14 00:27:00,
2013-02-13 19:32:00,62.4,60.1,29.91,NNE,18,2.0,9.0,92,0.01,,,0.01,meteohub,2013-02-14 00:32:00,
2013-02-13 19:37:00,62.4,60.4,29.92,NNE,19,0.0,9.0,93,0.00,,,0.01,meteohub,2013-02-14 00:37:00,
2013-02-13 19:42:00,62.4,60.4,29.93,North,359,2.0,8.0,93,0.00,,,0.01,meteohub,2013-02-14 00:42:00,
2013-02-13 19:49:00,63.1,58.6,29.94,NNE,27,7.0,20.0,85,0.00,,,0.01,meteohub,2013-02-14 00:49:00,
2013-02-13 19:55:00,62.2,55.6,29.94,NNW,336,8.0,20.0,79,0.00,,,0.01,meteohub,2013-02-14 00:55:00,
2013-02-13 20:01:00,61.5,55.2,29.94,NE,41,7.0,18.0,80,0.00,,,0.01,meteohub,2013-02-14 01:01:00,
2013-02-13 20:07:00,61.0,55.4,29.93,NE,56,8.0,18.0,82,0.00,,,0.01,meteohub,2013-02-14 01:07:00,
2013-02-13 20:12:00,60.4,55.2,29.92,NNE,30,5.0,17.0,83,0.00,,,0.01,meteohub,2013-02-14 01:12:00,
2013-02-13 20:17:00,60.3,55.4,29.93,NE,51,0.0,12.0,84,0.00,,,0.01,meteohub,2013-02-14 01:17:00,
2013-02-13 20:22:00,60.3,55.4,29.92,ENE,57,1.0,10.0,84,0.00,,,0.01,meteohub,2013-02-14 01:22:00,
2013-02-13 20:28:00,60.1,55.6,29.91,ENE,75,3.0,9.0,85,0.00,,,0.01,meteohub,2013-02-14 01:28:00,
2013-02-13 20:34:00,60.1,55.9,29.91,ENE,76,0.0,7.0,86,0.00,,,0.01,meteohub,2013-02-14 01:34:00,
2013-02-13 20:40:00,59.9,55.9,29.93,ENE,76,0.0,7.0,87,0.00,,,0.01,meteohub,2013-02-14 01:40:00,
2013-02-13 20:46:00,60.1,56.5,29.93,ENE,75,1.0,6.0,88,0.00,,,0.01,meteohub,2013-02-14 01:46:00,
2013-02-13 20:52:00,60.3,56.7,29.93,ENE,75,0.0,3.0,88,0.00,,,0.01,meteohub,2013-02-14 01:52:00,
2013-02-13 20:57:00,60.3,56.7,29.93,NE,43,1.0,3.0,88,0.00,,,0.01,meteohub,2013-02-14 01:57:00,
2013-02-13 21:02:00,60.6,56.7,29.93,NNE,12,3.0,5.0,87,0.00,,,0.01,meteohub,2013-02-14 02:02:00,
2013-02-13 21:07:00,61.0,56.8,29.93,North,4,0.0,5.0,86,0.00,,,0.01,meteohub,2013-02-14 02:07:00,
2013-02-13 21:12:00,61.2,57.0,29.93,NE,46,0.0,5.0,86,0.00,,,0.01,meteohub,2013-02-14 02:12:00,
2013-02-13 21:17:00,61.2,56.7,29.93,NNE,16,0.0,5.0,85,0.00,,,0.01,meteohub,2013-02-14 02:17:00,
2013-02-13 21:22:00,61.5,56.7,29.92,NNE,17,0.0,5.0,84,0.00,,,0.01,meteohub,2013-02-14 02:22:00,
2013-02-13 21:27:00,61.9,57.4,29.92,NNE,17,0.0,5.0,85,0.00,,,0.01,meteohub,2013-02-14 02:27:00,
2013-02-13 21:32:00,61.9,57.0,29.93,NNE,17,0.0,4.0,84,0.00,,,0.01,meteohub,2013-02-14 02:32:00,
2013-02-13 21:37:00,62.1,57.2,29.93,NNE,17,0.0,2.0,84,0.00,,,0.01,meteohub,2013-02-14 02:37:00,
2013-02-13 21:42:00,62.1,57.2,29.94,NNE,17,0.0,2.0,84,0.00,,,0.01,meteohub,2013-02-14 02:42:00,
2013-02-13 21:47:00,62.1,57.2,29.94,NNE,17,0.0,2.0,84,0.00,,,0.01,meteohub,2013-02-14 02:47:00,
2013-02-13 21:52:00,62.2,57.4,29.94,NNE,17,0.0,1.0,84,0.00,,,0.01,meteohub,2013-02-14 02:52:00,
2013-02-13 21:57:00,62.4,57.9,29.94,NNE,17,0.0,1.0,85,0.00,,,0.01,meteohub,2013-02-14 02:57:00,
2013-02-13 22:02:00,62.6,58.1,29.94,NNE,19,0.0,1.0,85,0.00,,,0.01,meteohub,2013-02-14 03:02:00,
2013-02-13 22:07:00,63.0,58.5,29.95,NNE,20,0.0,1.0,85,0.00,,,0.01,meteohub,2013-02-14 03:07:00,
2013-02-13 22:12:00,64.0,58.1,29.96,NW,310,4.0,7.0,81,0.00,,,0.01,meteohub,2013-02-14 03:12:00,
2013-02-13 22:17:00,64.8,57.7,29.96,WSW,253,1.0,7.0,78,0.00,,,0.01,meteohub,2013-02-14 03:17:00,
2013-02-13 22:22:00,64.9,57.6,29.97,West,260,1.0,7.0,77,0.00,,,0.01,meteohub,2013-02-14 03:22:00,
2013-02-13 22:27:00,64.8,57.4,29.96,West,260,0.0,6.0,77,0.00,,,0.01,meteohub,2013-02-14 03:27:00,
2013-02-13 22:32:00,64.9,57.9,29.96,West,261,0.0,5.0,78,0.00,,,0.01,meteohub,2013-02-14 03:32:00,
2013-02-13 22:37:00,64.8,57.7,29.96,WNW,284,0.0,4.0,78,0.00,,,0.01,meteohub,2013-02-14 03:37:00,
2013-02-13 22:42:00,64.9,58.3,29.96,WNW,285,0.0,2.0,79,0.00,,,0.01,meteohub,2013-02-14 03:42:00,
2013-02-13 22:47:00,65.1,56.7,29.95,North,4,4.0,8.0,74,0.00,,,0.01,meteohub,2013-02-14 03:47:00,
2013-02-13 22:52:00,65.5,56.7,29.95,North,4,2.0,11.0,73,0.00,,,0.01,meteohub,2013-02-14 03:52:00,
2013-02-13 22:57:00,65.7,56.8,29.95,North,354,2.0,11.0,73,0.00,,,0.01,meteohub,2013-02-14 03:57:00,
2013-02-13 23:02:00,65.7,56.8,29.96,NNW,335,2.0,10.0,73,0.00,,,0.01,meteohub,2013-02-14 04:02:00,
2013-02-13 23:07:00,65.8,56.1,29.96,North,10,1.0,9.0,71,0.00,,,0.01,meteohub,2013-02-14 04:07:00,
2013-02-13 23:12:00,66.2,56.1,29.96,NW,310,0.0,9.0,70,0.00,,,0.01,meteohub,2013-02-14 04:12:00,
2013-02-13 23:18:00,66.4,56.3,29.96,North,359,1.0,9.0,70,0.00,,,0.01,meteohub,2013-02-14 04:18:00,
2013-02-13 23:24:00,66.4,57.0,29.95,North,4,1.0,7.0,72,0.00,,,0.01,meteohub,2013-02-14 04:24:00,
2013-02-13 23:30:00,66.0,57.2,29.96,North,4,0.0,4.0,73,0.00,,,0.01,meteohub,2013-02-14 04:30:00,
2013-02-13 23:36:00,66.0,57.2,29.96,North,4,0.0,2.0,73,0.00,,,0.01,meteohub,2013-02-14 04:36:00,
2013-02-13 23:42:00,65.8,58.5,29.96,NE,53,0.0,1.0,77,0.00,,,0.01,meteohub,2013-02-14 04:42:00,
2013-02-13 23:47:00,65.1,58.5,29.97,ENE,57,0.0,3.0,79,0.00,,,0.01,meteohub,2013-02-14 04:47:00,
2013-02-13 23:52:00,64.4,58.5,29.96,SE,145,0.0,3.0,81,0.00,,,0.01,meteohub,2013-02-14 04:52:00,
2013-02-13 23:57:00,63.9,58.6,29.96,SE,145,0.0,6.0,83,0.00,,,0.01,meteohub,2013-02-14 04:57:00,